Liberal, KS

11:34 AM CST on December 11, 2017 (GMT -0600)
Liberal Municipal

Weather History for KLBL - October, 2011

Change the Weather History Date:

Monday, October 24, 2011

  Actual Average Record
Temperature  
Mean Temperature 66 °F -  
Max Temperature 87 °F 70 °F 88 °F (1940)
Min Temperature 44 °F 40 °F 24 °F (2005)
Growing Degree Days 16 (Base 50)    
Moisture  
Dew Point 37 °F    
Average Humidity 38    
Maximum Humidity 58    
Minimum Humidity 20    
Precipitation  
Precipitation 0.00 in - - ()
Sea Level Pressure  
Sea Level Pressure 30.07 in    
Wind  
Wind Speed 12 mph (SSW)    
Max Wind Speed 34 mph    
Max Gust Speed 44 mph    
Visibility 10 miles    
Events      
Averages and records for this station are not official NWS values.
T = Trace of Precipitation, MM = Missing Value Source: NWS Daily Summary

Daily Weather History Graph

Daily Weather History Graph

Search for Another Location

Airport or City:

Trip Planner

Search our weather history database for the weather conditions in past years. The results will help you decide how hot, cold, wet, or windy it might be!

Date:

Astronomy

Oct. 24, 2011 Rise Set
Actual Time 7:59 AM CDT 6:55 PM CDT
Civil Twilight 7:33 AM CDT 7:22 PM CDT
Nautical Twilight 7:02 AM CDT 7:52 PM CDT
Astronomical Twilight 6:32 AM CDT 8:22 PM CDT
Moon 5:23 AM CDT (10/24) 5:19 PM CDT (10/24)
Length of Visible Light 11h 48m
Length of Day
10h 55m
Waning Crescent, 7% of the Moon is Illuminated
Oct 24
Waning Crescent
Oct 26
New
Nov 2
First Quarter
Nov 10
Full
Nov 18
Last Quarter

Hourly Weather History & Observations

Time (CDT) Temp. Windchill Dew Point Humidity Pressure Visibility Wind Dir Wind Speed Gust Speed Precip Events Conditions
12:15 AM 53.6 °F - 28.4 °F 38% 30.15 in 10.0 mi Calm Calm - N/A   Clear
12:35 AM 51.8 °F - 28.4 °F 41% 30.15 in 10.0 mi Calm Calm - N/A   Clear
12:55 AM 51.8 °F - 28.4 °F 41% 30.15 in 10.0 mi SE 4.6 mph - N/A   Clear
1:15 AM 51.8 °F - 28.4 °F 41% 30.15 in 10.0 mi SE 3.5 mph - N/A   Clear
1:35 AM 48.2 °F - 24.8 °F 40% 30.15 in 10.0 mi South 3.5 mph - N/A   Clear
1:55 AM 46.4 °F 43.5 °F 26.6 °F 46% 30.15 in 10.0 mi South 5.8 mph - N/A   Clear
2:15 AM 48.2 °F - 30.2 °F 50% 30.15 in 10.0 mi South 6.9 mph - N/A   Clear
2:35 AM 50.0 °F - 28.4 °F 43% 30.14 in 10.0 mi South 8.1 mph - N/A   Clear
2:55 AM 48.2 °F - 28.4 °F 46% 30.14 in 10.0 mi South 8.1 mph - N/A   Clear
3:15 AM 48.2 °F - 26.6 °F 43% 30.13 in 10.0 mi South 6.9 mph - N/A   Clear
3:35 AM 48.2 °F - 28.4 °F 46% 30.13 in 10.0 mi Calm Calm - N/A   Clear
3:55 AM 48.2 °F - 28.4 °F 46% 30.12 in 10.0 mi SSE 3.5 mph - N/A   Clear
4:15 AM 51.8 °F - 30.2 °F 44% 30.13 in 10.0 mi South 4.6 mph - N/A   Clear
4:35 AM 48.2 °F - 28.4 °F 46% 30.12 in 10.0 mi SSW 8.1 mph - N/A   Clear
4:55 AM 46.4 °F 42.4 °F 28.4 °F 50% 30.12 in 10.0 mi SSW 8.1 mph - N/A   Clear
5:15 AM 44.6 °F 39.2 °F 28.4 °F 53% 30.11 in 10.0 mi SSW 10.4 mph - N/A   Clear
5:35 AM 46.4 °F 41.5 °F 28.4 °F 50% 30.11 in 10.0 mi SSW 10.4 mph - N/A   Clear
5:55 AM 46.4 °F 41.9 °F 28.4 °F 50% 30.11 in 10.0 mi SSW 9.2 mph - N/A   Clear
6:15 AM 46.4 °F 41.9 °F 28.4 °F 50% 30.12 in 10.0 mi SSW 9.2 mph - N/A   Clear
6:35 AM 46.4 °F 41.9 °F 28.4 °F 50% 30.12 in 10.0 mi SSW 9.2 mph - N/A   Clear
6:55 AM 46.4 °F 41.9 °F 28.4 °F 50% 30.12 in 10.0 mi SSW 9.2 mph - N/A   Clear
7:15 AM 46.4 °F 41.5 °F 28.4 °F 50% 30.12 in 10.0 mi SSW 10.4 mph - N/A   Clear
7:35 AM 46.4 °F 41.5 °F 28.4 °F 50% 30.12 in 10.0 mi SW 10.4 mph - N/A   Clear
7:55 AM 46.4 °F 41.1 °F 30.2 °F 53% 30.12 in 10.0 mi SW 11.5 mph - N/A   Clear
8:15 AM 48.2 °F - 32.0 °F 54% 30.12 in 10.0 mi SW 11.5 mph - N/A   Clear
8:35 AM 48.2 °F - 33.8 °F 58% 30.13 in 10.0 mi SSW 11.5 mph - N/A   Clear
8:55 AM 51.8 °F - 35.6 °F 54% 30.13 in 10.0 mi SSW 12.7 mph - N/A   Clear
9:15 AM 55.4 °F - 37.4 °F 51% 30.13 in 10.0 mi SSW 17.3 mph 21.9 mph N/A   Clear
9:35 AM 59.0 °F - 39.2 °F 48% 30.13 in 10.0 mi SSW 17.3 mph - N/A   Clear
9:55 AM 64.4 °F - 42.8 °F 45% 30.13 in 10.0 mi SSW 21.9 mph 27.6 mph N/A   Clear
10:15 AM 66.2 °F - 44.6 °F 46% 30.13 in 10.0 mi SSW 20.7 mph 26.5 mph N/A   Clear
10:35 AM 69.8 °F - 44.6 °F 40% 30.12 in 10.0 mi SSW 27.6 mph - N/A   Clear
10:55 AM 71.6 °F - 44.6 °F 38% 30.12 in 10.0 mi SSW 21.9 mph 28.8 mph N/A   Clear
11:15 AM 73.4 °F - 46.4 °F 38% 30.12 in 10.0 mi SSW 23.0 mph 29.9 mph N/A   Clear
11:35 AM 75.2 °F - 46.4 °F 36% 30.11 in 10.0 mi SSW 27.6 mph 32.2 mph N/A   Clear
11:55 AM 75.2 °F - 46.4 °F 36% 30.10 in 10.0 mi SSW 28.8 mph 33.4 mph N/A   Clear
12:15 PM 78.8 °F - 46.4 °F 32% 30.09 in 10.0 mi SSW 26.5 mph 34.5 mph N/A   Clear
12:35 PM 78.8 °F - 46.4 °F 32% 30.09 in 10.0 mi SSW 23.0 mph 32.2 mph N/A   Clear
12:55 PM 80.6 °F - 46.4 °F 30% 30.07 in 10.0 mi SSW 26.5 mph 33.4 mph N/A   Clear
1:15 PM 80.6 °F - 46.4 °F 30% 30.06 in 10.0 mi SSW 28.8 mph 35.7 mph N/A   Clear
1:35 PM 82.4 °F - 46.4 °F 28% 30.04 in 10.0 mi South 26.5 mph 33.4 mph N/A   Clear
1:55 PM 82.4 °F - 46.4 °F 28% 30.02 in 10.0 mi South 27.6 mph 36.8 mph N/A   Clear
2:15 PM 84.2 °F - 46.4 °F 27% 30.01 in 10.0 mi South 27.6 mph 38.0 mph N/A   Clear
2:35 PM 84.2 °F - 46.4 °F 27% 29.99 in 10.0 mi SSW 27.6 mph 38.0 mph N/A   Clear
2:55 PM 84.2 °F - 46.4 °F 27% 29.98 in 10.0 mi SSW 29.9 mph 38.0 mph N/A   Clear
3:15 PM 84.2 °F - 44.6 °F 25% 29.96 in 10.0 mi SSW 26.5 mph 41.4 mph N/A   Clear
3:35 PM 86.0 °F - 44.6 °F 23% 29.96 in 10.0 mi South 29.9 mph 43.7 mph N/A   Clear
3:55 PM 86.0 °F - 44.6 °F 23% 29.95 in 10.0 mi South 29.9 mph 35.7 mph N/A   Clear
4:15 PM 86.0 °F - 44.6 °F 23% 29.94 in 10.0 mi SSW 34.5 mph 40.3 mph N/A   Clear
4:35 PM 86.0 °F - 44.6 °F 23% 29.93 in 10.0 mi South 31.1 mph 41.4 mph N/A   Clear
4:55 PM 87.8 °F - 42.8 °F 21% 29.92 in 10.0 mi SSW 27.6 mph 41.4 mph N/A   Clear
5:15 PM 86.0 °F - 42.8 °F 22% 29.91 in 10.0 mi South 24.2 mph 38.0 mph N/A   Clear
5:35 PM 86.0 °F - 42.8 °F 22% 29.91 in 10.0 mi South 26.5 mph 35.7 mph N/A   Clear
5:55 PM 84.2 °F - 39.2 °F 20% 29.90 in 10.0 mi South 27.6 mph 38.0 mph N/A   Clear
6:15 PM 84.2 °F - 39.2 °F 20% 29.90 in 10.0 mi South 24.2 mph 32.2 mph N/A   Clear
6:35 PM 82.4 °F - 39.2 °F 21% 29.90 in 10.0 mi South 20.7 mph 28.8 mph N/A   Clear
6:55 PM 80.6 °F - 39.2 °F 23% 29.89 in 10.0 mi South 20.7 mph 26.5 mph N/A   Clear
7:15 PM 78.8 °F - 39.2 °F 24% 29.90 in 10.0 mi South 19.6 mph 24.2 mph N/A   Clear
7:35 PM 78.8 °F - 39.2 °F 24% 29.90 in 10.0 mi South 18.4 mph - N/A   Clear
7:55 PM 75.2 °F - 39.2 °F 27% 29.90 in 10.0 mi South 16.1 mph - N/A   Clear
8:15 PM 75.2 °F - 37.4 °F 25% 29.91 in 10.0 mi South 17.3 mph - N/A   Clear
8:35 PM 73.4 °F - 39.2 °F 29% 29.91 in 10.0 mi South 19.6 mph - N/A   Clear
8:55 PM 73.4 °F - 39.2 °F 29% 29.91 in 10.0 mi South 20.7 mph - N/A   Clear
9:15 PM 73.4 °F - 39.2 °F 29% 29.92 in 10.0 mi South 19.6 mph - N/A   Clear
9:35 PM 73.4 °F - 39.2 °F 29% 29.92 in 10.0 mi South 21.9 mph - N/A   Clear
9:55 PM 73.4 °F - 39.2 °F 29% 29.91 in 10.0 mi South 25.3 mph 29.9 mph N/A   Clear
10:15 PM 71.6 °F - 39.2 °F 31% 29.91 in 10.0 mi South 26.5 mph 31.1 mph N/A   Clear
10:35 PM 71.6 °F - 39.2 °F 31% 29.91 in 10.0 mi South 25.3 mph 31.1 mph N/A   Clear
10:55 PM 71.6 °F - 39.2 °F 31% 29.91 in 10.0 mi South 25.3 mph 31.1 mph N/A   Clear
11:15 PM 71.6 °F - 39.2 °F 31% 29.91 in 10.0 mi South 25.3 mph 31.1 mph N/A   Clear
11:35 PM 69.8 °F - 39.2 °F 33% 29.91 in 10.0 mi South 24.2 mph 33.4 mph N/A   Clear
11:55 PM 69.8 °F - 39.2 °F 33% 29.91 in 10.0 mi South 25.3 mph 29.9 mph N/A   Clear